Regional Weather Roundup
Issued by NWS

Home | Current Version | Previous Version | Text Only | Print | Product List | Glossary Off
Versions: 1 2 3 4 5 6 7 8 9 10 11 12 13 14 15 16 17 18 19 20 21 22 23 24 25 26 27 28 29 30 31 32 33 34 35 36 37 38 39 40 41 42 43 44 45 46 47 48 49 50

000
ASUS43 KLSX 192059
RWRMO

WEATHER SUMMARY FOR MISSOURI
NATIONAL WEATHER SERVICE SPRINGFIELD MO
400 PM CDT SUN OCT 19 2014

NOTE: "FAIR" INDICATES FEW OR NO CLOUDS BELOW 12,000 FEET WITH NO
       SIGNIFICANT WEATHER AND/OR OBSTRUCTIONS TO VISIBILITY.
       CURRENT SKY AND/OR WEATHER CONDITIONS ARE NOT AVAILABLE FOR
       CHILLICOTHE AND FARMINGTON.

MOZ001>031-035>038-043-044-053-054-192200-
...NORTHERN AND WESTERN MISSOURI...

CITY           SKY/WX    TMP DP  RH WIND       PRES   REMARKS
KANSAS CTY INT MOSUNNY   68  48  48 SW9       30.03F
KANSAS C DTWN  SUNNY     69  48  47 SW8       30.02F
LEE`S SUMMIT   SUNNY     68  46  45 SW8       30.04F
ST JOSEPH      MOSUNNY   70  46  42 SW13      30.01F
KIRKSVILLE     MOSUNNY   63  42  46 SW9       30.05F

$$
MOZ066>068-077>081-088>096-101>105-192200-
...SOUTHWEST MISSOURI...

CITY           SKY/WX    TMP DP  RH WIND       PRES   REMARKS
SPRINGFIELD    PTSUNNY   66  50  56 W3        30.09F
JOPLIN         SUNNY     68  52  56 SW7       30.09F

$$
MOZ032>034-039>042-045>050-055>058-069>072-192200-
...CENTRAL MISSOURI...

CITY           SKY/WX    TMP DP  RH WIND       PRES   REMARKS
COLUMBIA       SUNNY     64  45  49 S6        30.08F
JEFFERSON CITY SUNNY     66  43  43 VRB6      30.08F
ROLLA          SUNNY     63  43  48 S9        30.08F
SEDALIA        SUNNY     66  44  45 SW9       30.08F
OSAGE BEACH    SUNNY     66  43  42 W8        30.08F

$$
MOZ051-052-059>065-192200-
...EAST CENTRAL MISSOURI...

CITY           SKY/WX    TMP DP  RH WIND       PRES   REMARKS
ST LOUIS INTL  PTSUNNY   63  46  54 SW7       30.11F
SPIRIT OF STL  PTSUNNY   63  44  50 S5        30.10F
ST CHARLES     PTSUNNY   62  44  51 SW10      30.09F

$$
MOZ072>076-082>087-097>100-106>115-192200-
...SOUTH CENTRAL AND SOUTHEAST MISSOURI...

CITY           SKY/WX    TMP DP  RH WIND       PRES   REMARKS
CAPE GIRARDEAU PTSUNNY   62  43  49 CALM      30.13F
FARMINGTON     MOSUNNY   64  43  45 SW8       30.14S
POPLAR BLUFF   SUNNY     64  42  44 CALM      30.12F
WEST PLAINS    PTSUNNY   61  45  55 S7        30.13F HAZE

$$



USA.gov is the U.S. government's official web portal to all federal, state and local government web resources and services.